TimeMST,TemperatureF,Dew PointF,Humidity,Sea Level PressureIn,VisibilityMPH,Wind Direction,Wind SpeedMPH,Gust SpeedMPH,PrecipitationIn,Events,Conditions,WindDirDegrees,DateUTC
12:53 AM,37.0,27.0,67,30.08,10.0,SW,21.9,29.9,N/A,,Clear,230,2013-02-16 07:53:00
1:53 AM,35.1,27.0,72,30.08,10.0,SW,13.8,25.3,N/A,,Clear,230,2013-02-16 08:53:00
2:53 AM,36.0,27.0,70,30.06,10.0,SW,16.1,-,N/A,,Clear,220,2013-02-16 09:53:00
3:53 AM,36.0,27.0,70,30.05,10.0,SW,16.1,-,N/A,,Clear,220,2013-02-16 10:53:00
4:53 AM,33.8,26.6,75,29.98,10.0,WSW,11.5,-,N/A,,Clear,240,2013-02-16 11:53:00
5:53 AM,32.0,26.1,79,30.04,10.0,SW,15.0,-,N/A,,Clear,220,2013-02-16 12:53:00
6:53 AM,30.0,25.0,82,30.03,10.0,SW,11.5,-,N/A,,Clear,220,2013-02-16 13:53:00
7:53 AM,33.1,26.1,75,30.01,10.0,SW,13.8,-,N/A,,Clear,220,2013-02-16 14:53:00
8:53 AM,37.9,28.9,70,29.99,10.0,SW,16.1,-,N/A,,Clear,220,2013-02-16 15:53:00
9:53 AM,39.9,28.9,65,29.97,10.0,SW,23.0,-,N/A,,Clear,220,2013-02-16 16:53:00
10:53 AM,41.0,30.0,65,29.95,10.0,SW,21.9,-,N/A,,Clear,220,2013-02-16 17:53:00
11:53 AM,42.1,30.9,65,29.94,10.0,SW,13.8,-,N/A,,Clear,220,2013-02-16 18:53:00
12:53 PM,44.6,32.0,61,29.85,10.0,SW,13.8,-,N/A,,Clear,230,2013-02-16 19:53:00
1:53 PM,45.0,33.1,63,29.86,10.0,SW,13.8,-,N/A,,Clear,230,2013-02-16 20:53:00
2:53 PM,46.0,34.0,63,29.83,10.0,SW,10.4,-,N/A,,Clear,220,2013-02-16 21:53:00
3:53 PM,43.0,33.1,68,29.81,10.0,SW,9.2,-,N/A,,Clear,220,2013-02-16 22:53:00
4:53 PM,39.9,32.0,73,29.81,10.0,SW,8.1,-,N/A,,Clear,230,2013-02-16 23:53:00
5:53 PM,39.0,30.9,73,29.79,10.0,SSW,11.5,-,N/A,,Clear,210,2013-02-17 00:53:00
6:53 PM,37.0,30.0,76,29.77,10.0,SW,12.7,-,N/A,,Clear,220,2013-02-17 01:53:00
7:53 PM,37.4,30.2,75,29.66,10.0,WSW,5.8,-,N/A,,Clear,250,2013-02-17 02:53:00
8:53 PM,37.0,30.0,76,29.69,10.0,WSW,15.0,-,N/A,,Clear,250,2013-02-17 03:53:00
9:53 PM,37.0,30.0,76,29.66,10.0,WSW,18.4,-,N/A,,Clear,240,2013-02-17 04:53:00
10:53 PM,37.0,28.9,73,29.65,10.0,SW,17.3,-,N/A,,Clear,230,2013-02-17 05:53:00
11:53 PM,36.0,28.9,76,29.65,10.0,SW,9.2,-,N/A,,Scattered Clouds,220,2013-02-17 06:53:00